ROMMA est une association bénévole à but non lucratif. Votre soutien est indispensable : ADHERER à ROMMA ou FAIRE un DON

Voiron - (38, Isère)

Voironnais (300 m)   Longitude: 05° 35' E   Latitude: 45° 23' N Station partenaire n°109
 

Détail journalier du     <<     >>

Température Precipitation Humidité Pression Vent Dir Rafale Dir. rafale Ensol.
Heure (°C) (mm) (%) (hPa) (km/h) (km/h) (min)
01:00 13.907910152OSO6OSO0
02:00 13.707410152SSO8SSO0
03:00 12.8078101505SSO0
04:00 12.507710152OSO6NO0
05:00 12.208010141NNE10NNO0
06:00 12.107910132SSO13SSO0
07:00 12.108010132SSO16S0
08:00 12.307910122SE8SE0
09:00 13.807610133ESE11S30
10:00 16.607110132NNE10SSE60
11:00 17.107110136SSE15SSE60
12:00 18.706210124S13SE60
13:00 21.004810123SSE11SSE60
14:00 21.905010106SSO15SSE60
15:00 23.405010106S16SE60
16:00 24.404910094S15ONO60
17:00 25.404910082S13SSE60
18:00 24.405010084S23ONO0
19:00 23.105510093NO11NO30
20:00 14.94.683101215S50NO0
21:00 15.11.28910125ENE24NE0
22:00 15.52.48710128NNE26SSE0
23:00 15.408810125SSE27S0
minuit 15.208810118S27S0

Graphique du 01-10-2019

 

Serveur OMMA